Location: Gull Harbor
(47.1000°N, 122.9000°W)
Time: 09:50:56
(UTC-08:00)

N. Korean satellite - Visible Passes

Search period start: 17 January 2018 00:00
Search period end: 27 January 2018 00:00
Orbit: 459 x 515 km, 97.2° (Epoch: 17 January)

Date Brightness Start Highest point End Pass type
(mag) Time Alt. Az. Time Alt. Az. Time Alt. Az.
17 Jan 8.2 06:33:47 10° NNE 06:37:00 36° E 06:40:12 10° SSE visible
17 Jan 8.9 18:46:27 10° SSW 18:49:32 26° W 18:52:34 10° NW visible
18 Jan 9.5 06:10:39 10° NE 06:13:13 19° E 06:15:46 10° SE visible
18 Jan 7.6 18:22:15 10° S 18:25:47 49° W 18:29:15 10° NNW visible
19 Jan 10.2 05:48:44 10° E 05:49:20 10° E 05:49:55 10° E visible
19 Jan 6.5 17:58:29 10° SSE 18:02:06 84° ENE 18:05:40 10° N visible
20 Jan 6.8 06:56:06 10° NNE 06:59:33 72° ESE 07:03:00 10° S visible
20 Jan 6.9 17:35:05 10° SE 17:38:29 42° ENE 17:41:52 10° N visible
20 Jan 9.9 19:10:10 10° SW 19:12:12 14° W 19:14:13 10° WNW visible
21 Jan 8.3 06:32:37 10° NNE 06:35:50 35° E 06:39:01 10° SSE visible
21 Jan 8.9 18:45:19 10° SSW 18:48:22 26° W 18:51:24 10° NW visible
22 Jan 9.5 06:09:30 10° NE 06:12:01 19° E 06:14:33 10° SE visible
22 Jan 7.5 18:21:08 10° S 18:24:36 49° W 18:28:03 10° NNW visible
23 Jan 10.3 05:47:47 10° E 05:48:08 10° E 05:48:29 10° E visible
23 Jan 6.4 17:57:22 10° SSE 18:00:55 82° ENE 18:04:27 10° N visible
24 Jan 6.8 06:54:54 10° NNE 06:58:21 70° ESE 07:01:48 10° S visible
24 Jan 6.9 17:33:57 10° SE 17:37:18 40° ENE 17:40:37 10° N visible
24 Jan 9.9 19:08:58 10° SW 19:11:00 15° W 19:13:02 10° NW visible
25 Jan 8.4 06:31:25 10° NNE 06:34:37 34° E 06:37:49 10° SSE visible
25 Jan 8.9 18:44:08 10° SSW 18:47:10 26° W 18:50:11 10° NW visible
26 Jan 9.6 06:08:18 10° NE 06:10:48 18° E 06:13:18 10° SE visible
26 Jan 7.5 18:19:57 10° S 18:23:24 50° W 18:26:49 10° NNW visible
